Flag for Austria Past Weather in Waidhofen an der Thaya, Lower Austria, Austria — Yesterday and Last 2 Weeks

Now
66 °F

Sprinkles. Overcast.


Feels Like: 66 °F
Forecast: 58 / 76 °F
Wind: 1 mph from West

Location: Retz

Current Time: Jul 28, 2016 at 8:46:10 AM

Latest Report: Jul 28, 2016 at 8:00 AM


Visibility: 11 mi

Pressure: 30.00 "Hg (28.28 "Hg at 506m altitude)

Humidity: 88%

Dew Point: 62 °F

Location of Waidhofen an der ThayaLocation

Past Weather in Waidhofen an der Thaya — Graph

°F

Waidhofen an der Thaya Temperature Yesterday

Maximum temperature yesterday: 83 °F (at 3:00 PM)
Minimum temperature yesterday: 65 °F (at 11:00 PM)
Average temperature yesterday: 73 °F

High & Low Weather Summary for the Past Weeks

 TemperatureHumidityPressure
High84 °F (Jul 23, 5:00 PM)98% (Jul 22, 2:00 AM)30.23 "Hg (Jul 22, 2:00 AM)
Low52 °F (Jul 15, 5:00 AM)41% (Jul 18, 3:00 PM)29.74 "Hg (Jul 14, 9:00 AM)
Average69 °F72%30.01 "Hg
* Reported Jul 13 7:00 AM — Jul 28 7:00 AM, Waidhofen an der Thaya, Weather by CustomWeather, © 2016

Note: Actual official high and low records may vary slightly from our data, if they occured in-between our weather recording intervals... More about our weather records

Advertising

Waidhofen an der Thaya Weather History for the Previous 24 Hours

Scroll right to see more
 ConditionsComfort  
Time TempWeatherWind HumidityBarometerVisibility
7:00 AM
Thu, Jul 28
65 °FOvercast.1 mph88%30.00 "Hg11 mi
6:00 AM65 °FMild.5 mph87%29.98 "HgN/A
5:00 AM65 °FMild.7 mph89%29.97 "HgN/A
4:00 AM65 °FMild.5 mph91%29.98 "HgN/A
3:00 AM65 °FMild.6 mph89%29.99 "HgN/A
2:00 AM65 °FMild.3 mph95%29.99 "HgN/A
1:00 AM65 °FMild.3 mph94%29.98 "HgN/A
12:00 AM66 °FMild.3 mph89%29.96 "HgN/A
11:00 PM
Wed, Jul 27
65 °FMild.3 mph92%29.98 "HgN/A
10:00 PM65 °FMild.7 mph91%29.98 "HgN/A
9:00 PM71 °FMild.1 mph84%29.95 "HgN/A
8:00 PM73 °FThunderstorms. Overcast.3 mph76%29.92 "Hg8 mi
7:00 PM74 °FMild.6 mph70%29.90 "HgN/A
6:00 PM76 °FMild.3 mph69%29.89 "HgN/A
5:00 PM76 °FMild.6 mph71%29.89 "HgN/A
4:00 PM81 °FWarm.1 mph57%29.90 "HgN/A
3:00 PM83 °FWarm.1 mph54%29.90 "HgN/A
2:00 PM81 °FPartly sunny.No wind58%29.93 "Hg11 mi
1:00 PM80 °FWarm.1 mph61%29.95 "HgN/A
12:00 PM80 °FWarm.1 mph64%29.97 "HgN/A
11:00 AM77 °FMild.2 mph68%29.99 "HgN/A
10:00 AM75 °FMild.2 mph69%30.00 "HgN/A
9:00 AM73 °FMild.2 mph74%30.01 "HgN/A
8:00 AM70 °FPartly sunny.2 mph79%30.02 "Hg5 mi
Weather by CustomWeather, © 2016

See weather overviewHow to use our weather pages